Find Optus B1

NORAD ID: 22087 Int'l Des: 1992-054 Owner: OPT Country: AU operational
HEOCIRCULAR

Current View

Loading 3D Globe...

About Optus B1

Optus B1 (NORAD 22087) is a satellite launched Aug 13, 1992 by OPT of AU. It operates in HEO, CIRCULAR orbit with a mass of 2900.00 kg.

Upcoming Passes

Passes for default location (London). Set your location on the main map for personalized predictions.

Altitude History

Loading altitude history...

Two-Line Element Set

1 22087U 92054A 26194.60958681 .00000031 00000-0 00000-0 0 9998
2 22087 12.9724 23.9132 0009408 122.2460 250.3387 0.99202057134970
Epoch: Jul 13, 2026 • Age: 16 hours

Current Status

Altitude 36119.4 km
Apogee / Perigee N/A
Velocity 3.06 km/s
Sub-Earth Point -12.63°S, 117.33°W
Launch Date Aug 13, 1992
Age 33.9 years
Type other

Technical Details

Classification Payload
Mass 2900.00 kg
Dry Mass 1200.00 kg
Total Mass 2900.00 kg
Length 2.30 m
Diameter 2.30 m
Span 20.60 m
Shape Box + 2 Pan
Manufacturer HSES
Bus Type HS-601
Phase Status In Orbit
Owner/State OPT/AU

Most Searched